Location: Eexterzandvoort
(53.0303°N, 6.7884°E)
Time: 20:33:58
(UTC+00:00)

BlueWalker 3 - Pass Details

Date: 19 May 2025
Orbit: 460 x 472 km, 53.2° (Epoch: 14 June)

Event Time Altitude Azimuth Distance (km) Brightness Sun altitude
Rises 21:01:39 0° 285° (WNW) 2,495 6.3 -10.3°
Reaches altitude 10° 21:03:55 10° 276° (W) 1,619 5.1 -10.5°
Maximum altitude 21:07:13 33° 211° (SSW) 808 2.8 -10.8°
Enters shadow 21:09:29 17° 156° (SSE) 1,260 3.3 -11.0°
